Andrews, NC

6:10 PM EDT on April 30, 2017 (GMT -0400)
Andrews

Weather History for KRHP - November, 2014

Change the Weather History Date:

Tuesday, November 11, 2014

  Actual Average (KMMI) Record (KMMI)
Temperature  
Mean Temperature 48 °F -  
Max Temperature 69 °F 60 °F 69 °F (2015)
Min Temperature 28 °F 34 °F 24 °F (2016)
Degree Days  
Heating Degree Days 17    
Moisture  
Dew Point 36 °F    
Average Humidity 74    
Maximum Humidity 100    
Minimum Humidity 29    
Precipitation  
Precipitation 0.00 in - - ()
Sea Level Pressure  
Sea Level Pressure 30.03 in    
Wind  
Wind Speed 1 mph (WSW)    
Max Wind Speed 9 mph    
Max Gust Speed -    
Visibility 9 miles    
Events      
Averages and records for this station are not official NWS values.
T = Trace of Precipitation, MM = Missing Value Source: NWS Daily Summary

Daily Weather History Graph

Daily Weather History Graph

Search for Another Location

Airport or City:

Trip Planner

Search our weather history database for the weather conditions in past years. The results will help you decide how hot, cold, wet, or windy it might be!

Date:

Astronomy

Nov. 11, 2014 Rise Set
Actual Time 7:06 AM EST 5:32 PM EST
Civil Twilight 6:39 AM EST 5:58 PM EST
Nautical Twilight 6:09 AM EST 6:29 PM EST
Astronomical Twilight 5:39 AM EST 6:59 PM EST
Moon 9:54 PM EST (11/11) 11:11 AM EST (11/11)
Length of Visible Light 11h 19m
Length of Day
10h 25m
Waning Gibbous, 77% of the Moon is Illuminated
Nov 11
Waning Gibbous
Nov 14
Last Quarter
Nov 22
New
Nov 29
First Quarter
Dec 6
Full

Hourly Weather History & Observations

Time (EST) Temp. Dew Point Humidity Pressure Visibility Wind Dir Wind Speed Gust Speed Precip Events Conditions
12:15 AM 35.6 °F 35.2 °F 99% 30.06 in 10.0 mi Calm Calm - N/A   Clear
12:35 AM 34.0 °F 33.3 °F 97% 30.06 in 7.0 mi Calm Calm - N/A   Clear
12:55 AM 32.2 °F 32.0 °F 99% 30.05 in 7.0 mi Calm Calm - N/A   Clear
1:15 AM 33.3 °F 33.1 °F 99% 30.05 in 10.0 mi Calm Calm - N/A   Clear
1:35 AM 33.1 °F 32.9 °F 99% 30.05 in 7.0 mi Calm Calm - N/A   Clear
1:55 AM 32.2 °F 32.0 °F 99% 30.05 in 7.0 mi Calm Calm - N/A   Clear
2:15 AM 32.9 °F 32.9 °F 100% 30.05 in 7.0 mi Calm Calm - N/A   Clear
2:35 AM 31.6 °F 31.6 °F 100% 30.04 in 4.0 mi Calm Calm - N/A   Clear
2:55 AM 31.5 °F 31.3 °F 99% 30.05 in 2.5 mi Calm Calm - N/A   Clear
3:20 AM 31.1 °F 31.1 °F 100% 30.06 in 3.0 mi Calm Calm - N/A   Clear
3:35 AM 31.1 °F 31.1 °F 100% 30.06 in 4.0 mi Calm Calm - N/A   Clear
3:55 AM 30.0 °F 30.0 °F 100% 30.06 in 5.0 mi Calm Calm - N/A   Clear
4:15 AM 30.7 °F 30.7 °F 100% 30.06 in 2.0 mi Calm Calm - N/A   Clear
4:35 AM 30.7 °F 30.7 °F 100% 30.06 in 7.0 mi Calm Calm - N/A   Clear
4:55 AM 30.4 °F 30.2 °F 99% 30.06 in 4.0 mi Calm Calm - N/A   Clear
5:15 AM 29.5 °F 29.3 °F 99% 30.07 in 10.0 mi Calm Calm - N/A   Clear
5:35 AM 30.6 °F 30.6 °F 100% 30.07 in 7.0 mi Calm Calm - N/A   Clear
5:55 AM 30.2 °F 30.2 °F 100% 30.08 in 3.0 mi Calm Calm - N/A   Clear
6:15 AM 29.7 °F 29.5 °F 99% 30.08 in 4.0 mi Calm Calm - N/A   Clear
6:35 AM 30.0 °F 30.0 °F 100% 30.08 in 5.0 mi Calm Calm - N/A   Clear
6:55 AM 30.2 °F 30.0 °F 99% 30.09 in 10.0 mi Calm Calm - N/A   Clear
7:15 AM 28.9 °F 28.9 °F 100% 30.09 in 5.0 mi Calm Calm - N/A   Clear
7:35 AM 28.8 °F 28.8 °F 100% 30.09 in 7.0 mi Calm Calm - N/A   Clear
7:55 AM 30.2 °F 30.0 °F 99% 30.10 in 10.0 mi Calm Calm - N/A   Clear
8:15 AM 32.0 °F 32.0 °F 100% 30.10 in 10.0 mi Calm Calm - N/A   Clear
8:35 AM 34.7 °F 33.6 °F 96% 30.10 in 10.0 mi Calm Calm - N/A   Clear
8:55 AM 37.6 °F 35.2 °F 91% 30.09 in 10.0 mi Calm Calm - N/A   Clear
9:15 AM 39.9 °F 36.0 °F 86% 30.08 in 10.0 mi Calm Calm - N/A   Clear
9:35 AM 42.6 °F 36.1 °F 78% 30.08 in 10.0 mi Calm Calm - N/A   Clear
9:55 AM 45.5 °F 37.8 °F 74% 30.08 in 10.0 mi Calm Calm - N/A   Clear
10:15 AM 50.0 °F 36.0 °F 59% 30.07 in 10.0 mi Calm Calm - N/A   Clear
10:35 AM 54.1 °F 34.5 °F 48% 30.06 in 10.0 mi Calm Calm - N/A   Clear
10:55 AM 57.0 °F 37.2 °F 48% 30.06 in 10.0 mi Calm Calm - N/A   Clear
11:15 AM 60.1 °F 36.5 °F 41% 30.05 in 10.0 mi Calm Calm - N/A   Clear
11:35 AM 61.7 °F 36.7 °F 39% 30.04 in 10.0 mi Calm Calm - N/A   Clear
11:55 AM 63.3 °F 38.5 °F 40% 30.03 in 10.0 mi WSW 3.5 mph - N/A   Clear
12:15 PM 65.3 °F 38.1 °F 37% 30.01 in 10.0 mi Calm Calm - N/A   Clear
12:35 PM 66.2 °F 37.4 °F 35% 30.00 in 10.0 mi West 8.1 mph - N/A   Clear
12:55 PM 67.3 °F 34.2 °F 29% 29.99 in 10.0 mi West 9.2 mph - N/A   Clear
1:10 PM 68.2 °F 36.0 °F 31% 29.99 in 10.0 mi WSW 8.1 mph - N/A   Clear
1:35 PM 68.0 °F 35.8 °F 31% 29.98 in 10.0 mi WSW 8.1 mph - N/A   Clear
1:55 PM 68.5 °F 37.4 °F 32% 29.97 in 10.0 mi SW 9.2 mph - N/A   Clear
2:15 PM 68.5 °F 38.7 °F 34% 29.97 in 10.0 mi West 5.8 mph - N/A   Clear
2:35 PM 68.7 °F 38.7 °F 33% 29.97 in 10.0 mi SSW 5.8 mph - N/A   Clear
2:55 PM 68.9 °F 39.4 °F 34% 29.96 in 10.0 mi WSW 5.8 mph - N/A   Clear
3:15 PM 68.9 °F 39.0 °F 34% 29.96 in 10.0 mi WSW 4.6 mph - N/A   Clear
3:35 PM 68.9 °F 38.5 °F 33% 29.96 in 10.0 mi WSW 4.6 mph - N/A   Clear
3:55 PM 68.5 °F 36.5 °F 31% 29.96 in 10.0 mi SW 4.6 mph - N/A   Clear
4:15 PM 68.0 °F 37.6 °F 33% 29.96 in 10.0 mi SW 4.6 mph - N/A   Clear
4:35 PM 67.3 °F 37.6 °F 34% 29.96 in 10.0 mi WSW 3.5 mph - N/A   Clear
4:55 PM 62.8 °F 41.2 °F 45% 29.96 in 10.0 mi West 3.5 mph - N/A   Clear
5:15 PM 57.4 °F 41.4 °F 55% 29.97 in 10.0 mi Calm Calm - N/A   Clear
5:35 PM 54.5 °F 40.1 °F 58% 29.98 in 10.0 mi NNW 3.5 mph - N/A   Clear
5:55 PM 53.1 °F 40.5 °F 62% 29.98 in 10.0 mi Calm Calm - N/A   Clear
6:15 PM 50.4 °F 39.2 °F 66% 29.99 in 10.0 mi Calm Calm - N/A   Clear
6:35 PM 47.1 °F 39.6 °F 75% 30.00 in 10.0 mi Calm Calm - N/A   Clear
6:55 PM 49.6 °F 39.7 °F 69% 30.01 in 7.0 mi Calm Calm - N/A   Clear
7:15 PM 45.5 °F 39.7 °F 80% 30.01 in 10.0 mi Calm Calm - N/A   Clear
7:35 PM 45.5 °F 39.0 °F 78% 30.01 in 10.0 mi Calm Calm - N/A   Clear
8:20 PM 41.5 °F 37.8 °F 86% 30.00 in 7.0 mi Calm Calm - N/A   Clear
8:35 PM 42.6 °F 38.7 °F 86% 30.01 in 10.0 mi Calm Calm - N/A   Clear
8:55 PM 42.6 °F 38.5 °F 85% 30.01 in 10.0 mi Calm Calm - N/A   Clear
9:15 PM 40.8 °F 37.8 °F 89% 30.01 in 7.0 mi Calm Calm - N/A   Clear
9:35 PM 41.2 °F 38.1 °F 89% 30.01 in 10.0 mi Calm Calm - N/A   Clear
9:55 PM 42.1 °F 37.9 °F 85% 30.02 in 10.0 mi Calm Calm - N/A   Mostly Cloudy
10:20 PM 43.2 °F 40.3 °F 90% 30.03 in 10.0 mi Calm Calm - N/A   Overcast
10:35 PM 43.5 °F 40.1 °F 88% 30.02 in 10.0 mi Calm Calm - N/A   Mostly Cloudy
10:55 PM 44.2 °F 40.8 °F 88% 30.02 in 10.0 mi Calm Calm - N/A   Overcast
11:15 PM 45.0 °F 40.6 °F 85% 30.02 in 10.0 mi Calm Calm - N/A   Overcast
11:35 PM 45.7 °F 41.9 °F 87% 30.02 in 10.0 mi Calm Calm - N/A   Overcast
11:55 PM 45.9 °F 41.5 °F 85% 30.01 in 10.0 mi Calm Calm - N/A   Overcast